STARLINK-38077

Last updated on Sun Aug 09 2026 00:02:04 GMT+0000 (Coordinated Universal Time)

1 69983U 26159J 26220.58252774 .00215647 00000+0 14053-2 0 9999 2 69983 97.2838 60.6310 0001916 135.7084 224.4335 15.75273623 5712
UTC large
Height (km)
Speed (km/s)
/
Latitude / Longitude
Inclination (degrees)
Orbital Period (minutes)
Azimuth
Elevation
Range (km)
Doppler Factor

Next 0 passes for location: London (51.5072 / 0.1276)

No passes found over London.
STARLINK-38077